Weather History for KMCI - September, 2013

Change the Weather History Date:

Wednesday, September 18, 2013

  Actual Average Record
Temperature  
Mean Temperature 79 °F 67 °F  
Max Temperature 90 °F 78 °F 96 °F (1925)
Min Temperature 67 °F 56 °F 38 °F (1901)
Degree Days  
Heating Degree Days 0 2  
Month to date heating degree days 4 18  
Since 1 July heating degree days 4 20  
Cooling Degree Days 14 4  
Month to date cooling degree days 187 121  
Year to date cooling degree days 1281 1294  
Growing Degree Days 28 (Base 50)    
Moisture  
Dew Point 66 °F    
Average Humidity 67    
Maximum Humidity 87    
Minimum Humidity 47    
Precipitation  
Precipitation 0.00 in 0.17 in 1.86 in (1905)
Month to date precipitation 1.84 2.81  
Year to date precipitation 24.51 30.21  
Snow  
Snow 0.00 in 0.00 in 0.00 in ()
Month to date snowfall 0.0 0.0  
Since 1 July snowfall 0.0 0.0  
Since 1 September snowfall 0.0 0.0  
Snow Depth 0.00 in    
Sea Level Pressure  
Sea Level Pressure 29.88 in    
Wind  
Wind Speed 15 mph (South)    
Max Wind Speed 26 mph    
Max Gust Speed 33 mph    
Visibility 9 miles    
Events      
T = Trace of Precipitation, MM = Missing Value Source: NWS Daily Summary

Daily Weather History Graph

Daily Weather History Graph

Search for Another Location

Airport or City:

Trip Planner

Search our weather history database for the weather conditions in past years. The results will help you decide how hot, cold, wet, or windy it might be!

Date:

Astronomy

Sep. 18, 2013 Rise Set
Actual Time 7:03 AM CDT 7:22 PM CDT
Civil Twilight 6:36 AM CDT 7:48 PM CDT
Nautical Twilight 6:04 AM CDT 8:20 PM CDT
Astronomical Twilight 5:32 AM CDT 8:52 PM CDT
Moon 6:45 PM CDT (9/18) 6:06 AM CDT (9/18)
Length of Visible Light 13h 12m
Length of Day
12h 18m
Waxing Gibbous, 99% of the Moon is Illuminated
Sep 18
Waxing Gibbous
Sep 19
Full
Sep 26
Last Quarter
Oct 4
New
Oct 11
First Quarter

Hourly Weather History & Observations

Time (CDT) Temp. Heat Index Dew Point Humidity Pressure Visibility Wind Dir Wind Speed Gust Speed Precip Events Conditions
12:53 AM 68.0 °F - 64.9 °F 90% 29.96 in 5.0 mi SSE 8.1 mph - N/A   Partly Cloudy
1:53 AM 69.1 °F - 64.9 °F 87% 29.96 in 7.0 mi South 9.2 mph - N/A   Mostly Cloudy
2:53 AM 69.1 °F - 64.9 °F 87% 29.94 in 10.0 mi South 11.5 mph - N/A   Partly Cloudy
3:53 AM 68.0 °F - 64.9 °F 90% 29.92 in 9.0 mi SSE 10.4 mph - N/A   Clear
4:53 AM 68.0 °F - 64.0 °F 87% 29.91 in 9.0 mi South 10.4 mph - N/A   Clear
5:53 AM 68.0 °F - 64.0 °F 87% 29.91 in 9.0 mi South 10.4 mph - N/A   Partly Cloudy
6:53 AM 68.0 °F - 64.0 °F 87% 29.92 in 9.0 mi South 11.5 mph - N/A   Partly Cloudy
7:53 AM 69.1 °F - 64.9 °F 87% 29.93 in 8.0 mi South 11.5 mph - N/A   Mostly Cloudy
8:53 AM 72.0 °F - 66.0 °F 81% 29.93 in 9.0 mi South 12.7 mph - N/A   Mostly Cloudy
9:53 AM 77.0 °F - 66.9 °F 71% 29.93 in 10.0 mi South 17.3 mph - N/A   Mostly Cloudy
10:53 AM 81.0 °F 83.3 °F 66.9 °F 62% 29.92 in 10.0 mi South 20.7 mph - N/A   Partly Cloudy
11:53 AM 82.0 °F 84.5 °F 66.9 °F 60% 29.90 in 10.0 mi South 19.6 mph - N/A   Mostly Cloudy
12:53 PM 84.0 °F 87.0 °F 68.0 °F 58% 29.88 in 10.0 mi South 19.6 mph 25.3 mph N/A   Mostly Cloudy
1:53 PM 84.9 °F 88.8 °F 69.1 °F 59% 29.86 in 10.0 mi South 15.0 mph - N/A   Mostly Cloudy
2:53 PM 86.0 °F 90.1 °F 69.1 °F 57% 29.82 in 10.0 mi SSE 18.4 mph - N/A   Mostly Cloudy
3:53 PM 89.1 °F 92.1 °F 66.9 °F 48% 29.80 in 10.0 mi South 21.9 mph 32.2 mph N/A   Partly Cloudy
4:53 PM 88.0 °F 90.7 °F 66.9 °F 49% 29.80 in 10.0 mi South 23.0 mph 27.6 mph N/A   Scattered Clouds
5:53 PM 87.1 °F 89.9 °F 66.9 °F 51% 29.79 in 10.0 mi South 16.1 mph 27.6 mph N/A   Scattered Clouds
6:53 PM 84.9 °F 87.6 °F 66.9 °F 55% 29.79 in 10.0 mi South 19.6 mph 26.5 mph N/A   Partly Cloudy
7:53 PM 81.0 °F 83.3 °F 66.9 °F 62% 29.81 in 10.0 mi South 10.4 mph - N/A   Clear
8:53 PM 81.0 °F 83.3 °F 66.9 °F 62% 29.83 in 10.0 mi South 12.7 mph - N/A   Clear
9:53 PM 80.1 °F 82.3 °F 66.9 °F 64% 29.84 in 10.0 mi South 13.8 mph - N/A   Clear
10:53 PM 79.0 °F - 66.9 °F 66% 29.84 in 10.0 mi South 17.3 mph 24.2 mph N/A   Clear
11:53 PM 79.0 °F - 66.0 °F 64% 29.83 in 10.0 mi South 17.3 mph - N/A   Scattered Clouds